Regional Weather Roundup
Issued by NWS

Home | Current Version | Previous Version | Text Only | Print | Product List | Glossary Off
Versions: 1 2 3 4 5 6 7 8 9 10 11 12 13 14 15 16 17 18 19 20 21 22 23 24 25 26 27 28 29 30 31 32 33 34 35 36 37 38 39 40 41 42 43 44 45 46 47 48 49 50

000
ASUS44 KMEG 241110
RWRTN
TENNESSEE HOURLY STATE WEATHER ROUNDUP
NATIONAL WEATHER SERVICE MEMPHIS TN
600 AM CDT MON APR 24 2017

TNZ002-004-019-021-049-052-054-088>092-241200-
WEST TENNESSEE

CITY           SKY/WX    TMP DP  RH WIND       PRES   REMARKS
MEMPHIS INTL   CLEAR     49  46  90 N5        29.87S
NWS MEMPHIS      N/A     47 N/A N/A MISG        N/A
JACKSON        RAIN      50  47  89 N6        29.85S
DYERSBURG      CLEAR     47  46  97 CALM      29.88R
SOMERVILLE     CLEAR     48  48 100 CALM      29.85S
UNION CITY     CLEAR     48  43  81 N5        29.86F
BOLIVAR        CLEAR     50  46  87 NW5       29.85R
PARIS          CLOUDY    46  45  93 N5        29.85S
HUNTINGDON     CLOUDY    50  46  87 N5        29.84S
LEXINGTON      CLOUDY    52  50  93 VRB3      29.83S
SAVANNAH       CLOUDY    52  52 100 N7        29.81S
$$

TNZ008-025-027-028-033-062-065-066-241200-
NORTH MIDDLE TENNESSEE

CITY           SKY/WX    TMP DP  RH WIND       PRES   REMARKS
NASHVILLE      CLOUDY    55  52  89 N8        29.83R
PORTLAND       CLOUDY    54  52  94 N5        29.82S
CLARKSVILLE    MOCLDY    53  48  83 NE8       29.84F
SMYRNA         CLOUDY    55  54  94 N6        29.84R
COOKEVILLE     PTCLDY    52  50  93 N3        29.79R
GALLATIN       CLOUDY    55  52  88 N7        29.85R
CROSSVILLE     CLOUDY    51  49  92 NE7       29.82R
$$

TNZ061-075-076-078-094-096-097-241200-
SOUTH MIDDLE TENNESSEE

CITY           SKY/WX    TMP DP  RH WIND       PRES   REMARKS
FAYETTEVILLE   CLOUDY    54  54 100 E5        29.78S
TULLAHOMA      CLOUDY    54  54 100 E5        29.80R
WINCHESTER     MOCLDY    52  52 100 CALM      29.79S
MCMINNVILLE    CLOUDY    54  54 100 NE5       29.80R
COLUMBIA       CLOUDY   N/A N/A N/A N6        29.81R
SHELBYVILLE    CLOUDY    55  55 100 CALM      29.81R
$$

TNZ017-018-042-046-047-241200-
NORTHEAST TENNESSEE

CITY           SKY/WX    TMP DP  RH WIND       PRES   REMARKS
TRI CITIES     CLOUDY    49  47  93 NW5       29.83R
ELIZABETHTON   DRIZZLE   50  48  93 W6        29.82R
$$

TNZ012-013-036-069-073-074-241200-
CENTRAL EAST TENNESSEE

CITY           SKY/WX    TMP DP  RH WIND       PRES   REMARKS
KNOXVILLE      MOCLDY    52  49  89 NE6       29.79S
OAK RIDGE      MOCLDY    54  49  83 VRB3      29.81F
DOWNTOWN KNOXV PTCLDY    54  52  94 CALM      29.81S
GATLINBURG     CLOUDY    50  50 100 CALM      29.80F
MORRISTOWN     MOCLDY    52  50  93 NE6       29.81R
JACKSBORO      CLOUDY    54  52  94 CALM      29.85R
$$

TNZ083-085-099-241200-
SOUTHEAST TENNESSEE

CITY           SKY/WX    TMP DP  RH WIND       PRES   REMARKS
CHATTANOOGA    DRIZZLE   56  55  97 N9        29.79R FOG
$$

SKY/WX REPORTED AS FAIR MEANS FEW OR NO CLOUDS BELOW
12 THOUSAND FEET.




USA.gov is the U.S. government's official web portal to all federal, state and local government web resources and services.